Location: Alexandria
(38.8050°N, 77.0470°W)
Time: 10:38:57

N. Korean satellite - Visible Passes

Search period start: 19 March 2018 00:00
Search period end: 29 March 2018 00:00
Orbit: 460 x 512 km, 97.2° (Epoch: 18 March)

Date Brightness Start Highest point End Pass type
(mag) Time Alt. Az. Time Alt. Az. Time Alt. Az.
19 Mar 10.4 06:43:21 10° ENE 06:44:59 12° E 06:46:38 10° ESE visible
20 Mar 10.0 20:00:40 10° SW 20:02:53 15° W 20:05:07 10° NW visible
23 Mar 10.5 06:41:46 10° ENE 06:43:11 12° E 06:44:34 10° ESE visible
24 Mar 9.9 19:58:40 10° SW 20:01:03 16° W 20:03:26 10° NW visible
28 Mar 9.9 19:56:40 10° SW 19:59:09 17° W 20:01:40 10° NW visible
